Weather in Ust-Charyshskaya Pristan

Russia / Altai Krai     52°23′28″N   83°40′08″E
temp.,
°C
wind,
m/s
gust,
m/s
humid.,
%
clouds,
%
prec.,
mm/h
press.,
hPa
HPBL,
m
9 march, tue
tue901:00−1wnw81390100 0.9 1019776
04:00−10wsw5129086 0.0 1026427
07:00−11sw4109291 0.0 1029315
10:00−12sw498833 0.0 1031297
13:00−8sw358318 0.0 1030383
16:00−6ssw237521 0.0 1028439
19:00−8sse228543 0.0 102621
22:00−10se239099 0.0 102634
10 march, wed
wed1001:00−8se2391100 0.0 102398
04:00−6s2396100 0.1 1021101
07:00−8sse229596 0.1 102124
10:00−4se238691 0.0 1020137
13:00+1se238657 0.0 1017248
16:00+1se359258 0.0 1014284
19:00−1ese379079 0.0 1011168
22:00−3se2492100 0.0 100978
11 march, thu
thu1101:00−1ssw2385100 0.0 100736
04:00+2sw91896100 0.1 10081054
07:00+2wsw61497100 0.6 1011730
10:00−3w51087100 0.4 1016632
13:00−3wsw5983100 0.4 1018631
16:00−2wsw61181100 0.0 1021735
19:00−5sw298883 0.0 1021262
22:00−6s378852 0.0 1021169
12 march, fri
fri1201:00−5sse368776 0.0 1018135
04:00−1sw6157294 0.0 10171098
07:00−5wsw6139297 1.0 10171012
10:00−7w61181100 0.6 1019712
13:00−7w61170100 0.6 1022945
16:00−7wsw4973100 0.0 1021966
19:00−8wsw3779100 0.0 1021609
22:00−10wsw2487100 0.0 1021354
13 march, sat
sat1301:00−13nw2488100 0.1 1021176
04:00−16w3787100 0.0 1021204
07:00−18w499183 0.0 1024302
10:00−17w6108683 0.0 1028571
13:00−15w588088 0.0 1031802
16:00−14wsw5776100 0.0 1034892
19:00−16wsw368480 0.0 1036365
22:00−18sw23920 0.0 103785